Regional Weather Roundup
Issued by NWS

Home | Current Version | Previous Version | Text Only | Print | Product List | Glossary Off
Versions: 1 2 3 4 5 6 7 8 9 10 11 12 13 14 15 16 17 18 19 20 21 22 23 24 25 26 27 28 29 30 31 32 33 34 35 36 37 38 39 40 41 42 43 44 45 46 47 48 49 50

000
ASUS43 KLSX 190207
RWRMO

WEATHER SUMMARY FOR MISSOURI
NATIONAL WEATHER SERVICE SPRINGFIELD MO
900 PM CDT THU SEP 18 2014

NOTE: "FAIR" INDICATES FEW OR NO CLOUDS BELOW 12,000 FEET WITH NO
       SIGNIFICANT WEATHER AND/OR OBSTRUCTIONS TO VISIBILITY.
       CURRENT SKY AND/OR WEATHER CONDITIONS ARE NOT AVAILABLE FOR
       CHILLICOTHE AND FARMINGTON.

MOZ001>031-035>038-043-044-053-054-190300-
...NORTHERN AND WESTERN MISSOURI...

CITY           SKY/WX    TMP DP  RH WIND       PRES   REMARKS
KANSAS CTY INT CLEAR     64  61  90 SE8       30.01R
KANSAS C DTWN  CLEAR     65  61  87 E6        30.00R
LEE`S SUMMIT   CLEAR     63  61  93 E5        30.02R
ST JOSEPH      CLEAR     62  60  93 SE3       30.01R
CHILLICOTHE      N/A     65  59  81 VRB3      30.04R
KIRKSVILLE     CLEAR     57  53  86 E3        30.06R

$$
MOZ066>068-077>081-088>096-101>105-190300-
...SOUTHWEST MISSOURI...

CITY           SKY/WX    TMP DP  RH WIND       PRES   REMARKS
SPRINGFIELD    CLEAR     65  61  87 E8        30.02R
JOPLIN         CLEAR     66  63  90 E5        30.00R

$$
MOZ032>034-039>042-045>050-055>058-069>072-190300-
...CENTRAL MISSOURI...

CITY           SKY/WX    TMP DP  RH WIND       PRES   REMARKS
COLUMBIA       CLEAR     62  58  86 E6        30.04R
JEFFERSON CITY PTCLDY    65  59  81 CALM      30.03R
ROLLA          FOG       62  60  93 CALM      30.04R VSB 1/2
SEDALIA        CLEAR     63  61  93 SE5       30.04R FOG
WHITEMAN AFB   CLEAR     63  61  95 SE2       30.03R
OSAGE BEACH    CLEAR     63  59  88 CALM      30.04R

$$
MOZ051-052-059>065-190300-
...EAST CENTRAL MISSOURI...

CITY           SKY/WX    TMP DP  RH WIND       PRES   REMARKS
ST LOUIS INTL  PTCLDY    65  54  67 SE5       30.06R
SPIRIT OF STL  CLEAR     58  56  93 CALM      30.05R
ST CHARLES     CLEAR     57  56  96 NE5       30.05R

$$
MOZ072>076-082>087-097>100-106>115-190300-
...SOUTH CENTRAL AND SOUTHEAST MISSOURI...

CITY           SKY/WX    TMP DP  RH WIND       PRES   REMARKS
CAPE GIRARDEAU PTCLDY    63  59  87 NE5       30.03R
FARMINGTON     CLOUDY    64  57  77 E3        30.07R
POPLAR BLUFF   MOCLDY    66  59  78 N5        30.02R
WEST PLAINS    PTCLDY    60  58  92 CALM      30.05R FOG

$$


USA.gov is the U.S. government's official web portal to all federal, state and local government web resources and services.